QFA498 YSSY-YMML

Flight info

Callsign QFA498
Flight time 1h 11m
Altitude 38000
Route TESAT H65 LEECE Q29 ML
Aircraft A21N/M-SDE2E3FGHIRWXY/LB1

Departure

Time 2026-05-07 22:39
Airport Sydney Kingsford Smith International Airport (YSSY)

Arrival

Time 2026-05-07 23:51
Airport Melbourne Airport (YMML)
Time Latitude Longitude Altitude Speed Heading
2026-05-07 22:14 -33.93127 151.17756 35 ft 0 kts 191°
2026-05-07 22:18 -33.93124 151.17757 35 ft 3 kts 191°
2026-05-07 22:18 -33.93098 151.17763 35 ft 4 kts 193°
2026-05-07 22:19 -33.93073 151.17773 35 ft 4 kts 212°
2026-05-07 22:19 -33.93060 151.17790 35 ft 3 kts 276°
2026-05-07 22:19 -33.93060 151.17793 35 ft 0 kts 280°
2026-05-07 22:21 -33.93060 151.17791 35 ft 1 kts 280°
2026-05-07 22:21 -33.93056 151.17764 35 ft 6 kts 284°
2026-05-07 22:21 -33.93024 151.17678 35 ft 17 kts 290°
2026-05-07 22:21 -33.93018 151.17537 36 ft 19 kts 193°
2026-05-07 22:22 -33.93071 151.17529 36 ft 11 kts 195°
2026-05-07 22:22 -33.93113 151.17455 36 ft 12 kts 213°
2026-05-07 22:22 -33.93205 151.17457 35 ft 15 kts 168°
2026-05-07 22:22 -33.93313 151.17487 35 ft 17 kts 168°
2026-05-07 22:23 -33.93435 151.17503 35 ft 13 kts 190°
2026-05-07 22:23 -33.93531 151.17515 35 ft 15 kts 167°
2026-05-07 22:23 -33.93640 151.17545 34 ft 17 kts 168°
2026-05-07 22:23 -33.93757 151.17574 34 ft 17 kts 168°
2026-05-07 22:24 -33.93835 151.17594 34 ft 0 kts 170°
2026-05-07 22:24 -33.93850 151.17597 34 ft 6 kts 169°
2026-05-07 22:24 -33.93902 151.17609 34 ft 9 kts 168°
2026-05-07 22:24 -33.93971 151.17629 34 ft 11 kts 166°
2026-05-07 22:25 -33.94059 151.17655 34 ft 15 kts 167°
2026-05-07 22:25 -33.94170 151.17685 34 ft 18 kts 166°
2026-05-07 22:25 -33.94297 151.17723 35 ft 20 kts 165°
2026-05-07 22:25 -33.94438 151.17768 35 ft 22 kts 165°
2026-05-07 22:26 -33.94582 151.17810 35 ft 17 kts 168°
2026-05-07 22:26 -33.94707 151.17842 35 ft 20 kts 167°
2026-05-07 22:26 -33.94840 151.17877 35 ft 12 kts 168°
2026-05-07 22:26 -33.94897 151.17891 35 ft 11 kts 168°
2026-05-07 22:27 -33.94975 151.17912 35 ft 17 kts 168°
2026-05-07 22:27 -33.95078 151.17937 36 ft 9 kts 169°
2026-05-07 22:27 -33.95151 151.17954 36 ft 11 kts 179°
2026-05-07 22:28 -33.95195 151.17928 36 ft 8 kts 230°
2026-05-07 22:28 -33.95215 151.17876 35 ft 2 kts 256°
2026-05-07 22:28 -33.95215 151.17875 35 ft 0 kts 257°
2026-05-07 22:31 -33.95216 151.17871 35 ft 2 kts 257°
2026-05-07 22:31 -33.95223 151.17835 35 ft 13 kts 257°
2026-05-07 22:31 -33.95244 151.17716 34 ft 12 kts 258°
2026-05-07 22:31 -33.95258 151.17643 34 ft 6 kts 258°
2026-05-07 22:32 -33.95261 151.17627 34 ft 0 kts 257°
2026-05-07 22:32 -33.95268 151.17603 34 ft 7 kts 240°
2026-05-07 22:32 -33.95341 151.17578 35 ft 15 kts 168°
2026-05-07 22:33 -33.95477 151.17615 35 ft 28 kts 167°
2026-05-07 22:33 -33.95672 151.17667 36 ft 29 kts 168°
2026-05-07 22:33 -33.95841 151.17709 35 ft 25 kts 168°
2026-05-07 22:33 -33.96021 151.17754 36 ft 27 kts 168°
2026-05-07 22:34 -33.96210 151.17805 35 ft 20 kts 168°
2026-05-07 22:34 -33.96328 151.17836 35 ft 12 kts 168°
2026-05-07 22:34 -33.96400 151.17858 36 ft 10 kts 155°
2026-05-07 22:34 -33.96414 151.17869 36 ft 0 kts 141°
2026-05-07 22:35 -33.96415 151.17869 36 ft 0 kts 141°
2026-05-07 22:35 -33.96429 151.17889 36 ft 5 kts 119°
2026-05-07 22:35 -33.96434 151.17938 35 ft 5 kts 82°
2026-05-07 22:35 -33.96434 151.17940 35 ft 0 kts 82°
2026-05-07 22:36 -33.96434 151.17941 35 ft 1 kts 82°
2026-05-07 22:36 -33.96430 151.17977 35 ft 13 kts 80°
2026-05-07 22:36 -33.96372 151.18047 35 ft 11 kts 359°
2026-05-07 22:37 -33.96352 151.18044 35 ft 0 kts 351°
2026-05-07 22:38 -33.96343 151.18042 35 ft 3 kts 351°
2026-05-07 22:38 -33.95975 151.17946 34 ft 95 kts 347°
2026-05-07 22:39 -33.95089 151.17717 34 ft 161 kts 346°
2026-05-07 22:39 -33.93900 151.17418 466 ft 180 kts 345°
2026-05-07 22:39 -33.93067 151.17197 1062 ft 183 kts 342°
2026-05-07 22:39 -33.91793 151.16886 1880 ft 190 kts 340°
2026-05-07 22:40 -33.90477 151.16573 2662 ft 194 kts 340°
2026-05-07 22:40 -33.89159 151.16157 3386 ft 197 kts 327°
2026-05-07 22:40 -33.88213 151.15003 3998 ft 198 kts 291°
2026-05-07 22:40 -33.87953 151.13372 4690 ft 204 kts 261°
2026-05-07 22:41 -33.88458 151.11750 5216 ft 222 kts 230°
2026-05-07 22:41 -33.89755 151.10632 5853 ft 240 kts 203°
2026-05-07 22:41 -33.91352 151.09921 6805 ft 248 kts 201°
2026-05-07 22:41 -33.92984 151.09206 7807 ft 252 kts 202°
2026-05-07 22:42 -33.94632 151.08462 8837 ft 255 kts 203°
2026-05-07 22:42 -33.96296 151.07694 9881 ft 257 kts 204°
2026-05-07 22:42 -33.98011 151.06887 10500 ft 276 kts 205°
2026-05-07 22:42 -33.99875 151.05997 10859 ft 300 kts 205°
2026-05-07 22:43 -34.01648 151.05150 11210 ft 319 kts 204°
2026-05-07 22:43 -34.02276 151.04852 11342 ft 324 kts 204°
2026-05-07 22:43 -34.04408 151.03836 12021 ft 333 kts 205°
2026-05-07 22:43 -34.06581 151.02800 12881 ft 337 kts 205°
2026-05-07 22:44 -34.08770 151.01758 13822 ft 340 kts 205°
2026-05-07 22:44 -34.10979 151.00702 14637 ft 342 kts 205°
2026-05-07 22:44 -34.13198 150.99640 15422 ft 345 kts 206°
2026-05-07 22:44 -34.15442 150.98563 16197 ft 349 kts 206°
2026-05-07 22:45 -34.17710 150.97476 16983 ft 352 kts 206°
2026-05-07 22:45 -34.20002 150.96376 17754 ft 356 kts 206°
2026-05-07 22:45 -34.22314 150.95268 18501 ft 360 kts 206°
2026-05-07 22:45 -34.24619 150.94159 19142 ft 363 kts 206°
2026-05-07 22:46 -34.26972 150.93023 19803 ft 366 kts 206°
2026-05-07 22:46 -34.29347 150.91884 20496 ft 369 kts 206°
2026-05-07 22:46 -34.31741 150.90739 21171 ft 371 kts 206°
2026-05-07 22:46 -34.34146 150.89585 21835 ft 373 kts 206°
2026-05-07 22:47 -34.36571 150.88420 22470 ft 376 kts 206°
2026-05-07 22:47 -34.39009 150.87247 23090 ft 379 kts 206°
2026-05-07 22:47 -34.41469 150.86062 23720 ft 382 kts 206°
2026-05-07 22:47 -34.43943 150.84869 24218 ft 385 kts 206°
2026-05-07 22:48 -34.46442 150.83662 24715 ft 388 kts 206°
2026-05-07 22:48 -34.48958 150.82445 25242 ft 391 kts 206°
2026-05-07 22:48 -34.51485 150.81217 25777 ft 392 kts 206°
2026-05-07 22:48 -34.53949 150.79807 26277 ft 391 kts 213°
2026-05-07 22:49 -34.56163 150.77900 26740 ft 391 kts 223°
2026-05-07 22:49 -34.58029 150.75499 27185 ft 393 kts 232°
2026-05-07 22:49 -34.59665 150.72829 27548 ft 396 kts 234°
2026-05-07 22:49 -34.61277 150.70111 28098 ft 396 kts 234°
2026-05-07 22:50 -34.62889 150.67402 28677 ft 395 kts 234°
2026-05-07 22:50 -34.64507 150.64705 29264 ft 394 kts 234°
2026-05-07 22:50 -34.66123 150.62019 29851 ft 393 kts 234°
2026-05-07 22:50 -34.67733 150.59339 30388 ft 392 kts 234°
2026-05-07 22:51 -34.69335 150.56668 30879 ft 390 kts 234°
2026-05-07 22:51 -34.70930 150.54009 31356 ft 389 kts 235°
2026-05-07 22:51 -34.72521 150.51358 31837 ft 388 kts 235°
2026-05-07 22:51 -34.74108 150.48716 32281 ft 386 kts 235°
2026-05-07 22:52 -34.75684 150.46082 32712 ft 385 kts 236°
2026-05-07 22:52 -34.77256 150.43453 33143 ft 383 kts 236°
2026-05-07 22:52 -34.78824 150.40838 33589 ft 382 kts 236°
2026-05-07 22:52 -34.80386 150.38232 34019 ft 381 kts 236°
2026-05-07 22:53 -34.81940 150.35629 34388 ft 380 kts 236°
2026-05-07 22:53 -34.83493 150.33025 34678 ft 380 kts 236°
2026-05-07 22:53 -34.85045 150.30422 34946 ft 380 kts 236°
2026-05-07 22:53 -34.86600 150.27807 35201 ft 382 kts 236°
2026-05-07 22:54 -34.88155 150.25192 35442 ft 382 kts 236°
2026-05-07 22:54 -34.89722 150.22561 35673 ft 383 kts 236°
2026-05-07 22:54 -34.91283 150.19937 35942 ft 383 kts 236°
2026-05-07 22:54 -34.92851 150.17300 36189 ft 384 kts 236°
2026-05-07 22:55 -34.94416 150.14665 36459 ft 384 kts 237°
2026-05-07 22:55 -34.95958 150.12064 36717 ft 384 kts 237°
2026-05-07 22:55 -34.97538 150.09395 37052 ft 383 kts 236°
2026-05-07 22:55 -34.99096 150.06768 37367 ft 382 kts 236°
2026-05-07 22:56 -35.00629 150.04180 37621 ft 381 kts 236°
2026-05-07 22:56 -35.02201 150.01522 37838 ft 382 kts 236°
2026-05-07 22:56 -35.03734 149.98930 38044 ft 382 kts 236°
2026-05-07 22:56 -35.05290 149.96293 38194 ft 384 kts 236°
2026-05-07 22:57 -35.06850 149.93646 38215 ft 385 kts 236°
2026-05-07 22:57 -35.09981 149.88339 38169 ft 385 kts 236°
2026-05-07 22:58 -35.13083 149.83067 38202 ft 378 kts 235°
2026-05-07 22:58 -35.16132 149.77878 38190 ft 375 kts 235°
2026-05-07 22:59 -35.19171 149.72706 38177 ft 374 kts 235°
2026-05-07 22:59 -35.22202 149.67531 38195 ft 374 kts 235°
2026-05-07 23:00 -35.25235 149.62352 38185 ft 375 kts 235°
2026-05-07 23:00 -35.28272 149.57156 38171 ft 378 kts 235°
2026-05-07 23:01 -35.31342 149.51891 38184 ft 381 kts 236°
2026-05-07 23:01 -35.34425 149.46606 38185 ft 381 kts 236°
2026-05-07 23:02 -35.37502 149.41312 38178 ft 381 kts 235°
2026-05-07 23:02 -35.40559 149.36050 38179 ft 382 kts 236°
2026-05-07 23:03 -35.43640 149.30737 38184 ft 384 kts 236°
2026-05-07 23:03 -35.46734 149.25396 38179 ft 385 kts 236°
2026-05-07 23:04 -35.49827 149.20039 38172 ft 385 kts 236°
2026-05-07 23:04 -35.52921 149.14684 38175 ft 385 kts 236°
2026-05-07 23:05 -35.56013 149.09322 38168 ft 385 kts 236°
2026-05-07 23:05 -35.59101 149.03956 38154 ft 385 kts 235°
2026-05-07 23:06 -35.62207 148.98553 38164 ft 389 kts 235°
2026-05-07 23:06 -35.65326 148.93111 38159 ft 389 kts 235°
2026-05-07 23:07 -35.68444 148.87667 38164 ft 390 kts 235°
2026-05-07 23:07 -35.71563 148.82216 38190 ft 389 kts 234°
2026-05-07 23:08 -35.74663 148.76784 38179 ft 387 kts 234°
2026-05-07 23:08 -35.77773 148.71332 38153 ft 391 kts 235°
2026-05-07 23:09 -35.80901 148.65840 38187 ft 392 kts 235°
2026-05-07 23:09 -35.84030 148.60334 38183 ft 392 kts 235°
2026-05-07 23:10 -35.87155 148.54824 38209 ft 392 kts 234°
2026-05-07 23:10 -35.90270 148.49310 38201 ft 392 kts 234°
2026-05-07 23:11 -35.93387 148.43775 38200 ft 394 kts 235°
2026-05-07 23:11 -35.96520 148.38212 38206 ft 395 kts 235°
2026-05-07 23:12 -35.99640 148.32654 38237 ft 395 kts 234°
2026-05-07 23:12 -36.02773 148.27074 38226 ft 394 kts 234°
2026-05-07 23:13 -36.05892 148.21495 38236 ft 395 kts 234°
2026-05-07 23:13 -36.09016 148.15912 38232 ft 395 kts 234°
2026-05-07 23:14 -36.12140 148.10311 38239 ft 396 kts 234°
2026-05-07 23:14 -36.15268 148.04715 38253 ft 395 kts 234°
2026-05-07 23:15 -36.18394 147.99123 38260 ft 395 kts 234°
2026-05-07 23:15 -36.21522 147.93522 38261 ft 395 kts 234°
2026-05-07 23:16 -36.24646 147.87918 38249 ft 396 kts 234°
2026-05-07 23:16 -36.27765 147.82299 38252 ft 396 kts 234°
2026-05-07 23:17 -36.30895 147.76665 38251 ft 397 kts 234°
2026-05-07 23:17 -36.34021 147.71017 38252 ft 397 kts 234°
2026-05-07 23:18 -36.37141 147.65357 38249 ft 397 kts 234°
2026-05-07 23:18 -36.40241 147.59738 38246 ft 398 kts 234°
2026-05-07 23:19 -36.43374 147.54040 38254 ft 401 kts 234°
2026-05-07 23:19 -36.46519 147.48311 38254 ft 401 kts 234°
2026-05-07 23:20 -36.49662 147.42573 38249 ft 401 kts 234°
2026-05-07 23:20 -36.52803 147.36841 38230 ft 401 kts 234°
2026-05-07 23:21 -36.55912 147.31150 38239 ft 393 kts 234°
2026-05-07 23:21 -36.59017 147.25450 38248 ft 402 kts 234°
2026-05-07 23:22 -36.62160 147.19686 38247 ft 403 kts 234°
2026-05-07 23:22 -36.65298 147.13911 38250 ft 403 kts 234°
2026-05-07 23:23 -36.68432 147.08135 38236 ft 403 kts 234°
2026-05-07 23:23 -36.71546 147.02387 38242 ft 393 kts 234°
2026-05-07 23:24 -36.74635 146.96679 38252 ft 402 kts 234°
2026-05-07 23:24 -36.77769 146.90872 38256 ft 404 kts 234°
2026-05-07 23:25 -36.80919 146.85079 38253 ft 403 kts 234°
2026-05-07 23:25 -36.84089 146.79292 38243 ft 403 kts 233°
2026-05-07 23:26 -36.87221 146.73554 38234 ft 398 kts 233°
2026-05-07 23:26 -36.89834 146.68762 38247 ft 405 kts 233°
2026-05-07 23:27 -36.94599 146.59979 38247 ft 409 kts 234°
2026-05-07 23:27 -36.97806 146.54072 38240 ft 411 kts 234°
2026-05-07 23:28 -37.01006 146.48157 38242 ft 408 kts 234°
2026-05-07 23:28 -37.02580 146.45243 38008 ft 400 kts 234°
2026-05-07 23:28 -37.04135 146.42370 37335 ft 398 kts 233°
2026-05-07 23:29 -37.05689 146.39494 36817 ft 400 kts 233°
2026-05-07 23:29 -37.07252 146.36597 36508 ft 402 kts 233°
2026-05-07 23:29 -37.08812 146.33701 35986 ft 399 kts 233°
2026-05-07 23:29 -37.10359 146.30823 35351 ft 397 kts 233°
2026-05-07 23:30 -37.11902 146.27954 34671 ft 397 kts 232°
2026-05-07 23:30 -37.13443 146.25090 33908 ft 396 kts 232°
2026-05-07 23:30 -37.14984 146.22226 33103 ft 396 kts 232°
2026-05-07 23:30 -37.16516 146.19369 32350 ft 394 kts 232°
2026-05-07 23:31 -37.18045 146.16515 31571 ft 394 kts 232°
2026-05-07 23:31 -37.19569 146.13669 30826 ft 393 kts 232°
2026-05-07 23:31 -37.21093 146.10824 29970 ft 393 kts 232°
2026-05-07 23:31 -37.22619 146.07970 29005 ft 394 kts 232°
2026-05-07 23:32 -37.24152 146.05109 28187 ft 398 kts 233°
2026-05-07 23:32 -37.25703 146.02207 27456 ft 401 kts 233°
2026-05-07 23:32 -37.27247 145.99312 26709 ft 397 kts 233°
2026-05-07 23:32 -37.28773 145.96445 25959 ft 394 kts 233°
2026-05-07 23:33 -37.30288 145.93600 25234 ft 390 kts 233°
2026-05-07 23:33 -37.31790 145.90778 24518 ft 387 kts 233°
2026-05-07 23:33 -37.33268 145.87994 23985 ft 377 kts 233°
2026-05-07 23:33 -37.34698 145.85307 23603 ft 363 kts 232°
2026-05-07 23:34 -37.36074 145.82725 23232 ft 349 kts 232°
2026-05-07 23:34 -37.37410 145.80211 22641 ft 343 kts 232°
2026-05-07 23:34 -37.38728 145.77733 21966 ft 340 kts 232°
2026-05-07 23:34 -37.40030 145.75267 21298 ft 337 kts 233°
2026-05-07 23:35 -37.41324 145.72818 20665 ft 335 kts 233°
2026-05-07 23:35 -37.42601 145.70394 19922 ft 330 kts 233°
2026-05-07 23:35 -37.43860 145.68003 19194 ft 326 kts 232°
2026-05-07 23:35 -37.45110 145.65634 18474 ft 323 kts 232°
2026-05-07 23:36 -37.46346 145.63289 17686 ft 320 kts 232°
2026-05-07 23:36 -37.47566 145.60973 16927 ft 315 kts 232°
2026-05-07 23:36 -37.48771 145.58687 16199 ft 312 kts 232°
2026-05-07 23:36 -37.49971 145.56412 15603 ft 311 kts 232°
2026-05-07 23:37 -37.51156 145.54155 15052 ft 308 kts 232°
2026-05-07 23:37 -37.52319 145.51943 14508 ft 306 kts 232°
2026-05-07 23:37 -37.53487 145.49720 13978 ft 304 kts 232°
2026-05-07 23:37 -37.54647 145.47512 13424 ft 301 kts 232°
2026-05-07 23:38 -37.55811 145.45340 12911 ft 297 kts 230°
2026-05-07 23:38 -37.57016 145.43239 12386 ft 294 kts 229°
2026-05-07 23:38 -37.58218 145.41173 11938 ft 289 kts 229°
2026-05-07 23:38 -37.59378 145.39170 11672 ft 276 kts 229°
2026-05-07 23:39 -37.60481 145.37261 11480 ft 262 kts 229°
2026-05-07 23:39 -37.61536 145.35440 11159 ft 253 kts 229°
2026-05-07 23:39 -37.62564 145.33666 10651 ft 249 kts 229°
2026-05-07 23:39 -37.63586 145.31903 10240 ft 250 kts 229°
2026-05-07 23:40 -37.64611 145.30129 9912 ft 250 kts 229°
2026-05-07 23:40 -37.65633 145.28360 9539 ft 249 kts 229°
2026-05-07 23:40 -37.66655 145.26588 9168 ft 249 kts 229°
2026-05-07 23:40 -37.67670 145.24827 8798 ft 248 kts 230°
2026-05-07 23:41 -37.68685 145.23069 8437 ft 248 kts 230°
2026-05-07 23:41 -37.69700 145.21309 8077 ft 248 kts 230°
2026-05-07 23:41 -37.70714 145.19547 7734 ft 248 kts 231°
2026-05-07 23:41 -37.71725 145.17787 7389 ft 248 kts 231°
2026-05-07 23:42 -37.72741 145.16023 7028 ft 248 kts 231°
2026-05-07 23:42 -37.73755 145.14259 6687 ft 246 kts 231°
2026-05-07 23:42 -37.74736 145.12551 6507 ft 234 kts 231°
2026-05-07 23:42 -37.75666 145.10930 6312 ft 222 kts 231°
2026-05-07 23:43 -37.76554 145.09380 6015 ft 214 kts 231°
2026-05-07 23:43 -37.77412 145.07878 5678 ft 209 kts 231°
2026-05-07 23:43 -37.78258 145.06398 5359 ft 207 kts 231°
2026-05-07 23:43 -37.79094 145.04938 5054 ft 204 kts 232°
2026-05-07 23:44 -37.79922 145.03491 4731 ft 201 kts 232°
2026-05-07 23:44 -37.80735 145.02062 4437 ft 199 kts 232°
2026-05-07 23:44 -37.81434 145.00555 4119 ft 201 kts 245°
2026-05-07 23:44 -37.81786 144.98842 3828 ft 201 kts 253°
2026-05-07 23:45 -37.82063 144.97118 3553 ft 198 kts 252°
2026-05-07 23:45 -37.82335 144.95475 3428 ft 181 kts 252°
2026-05-07 23:45 -37.82582 144.94003 3351 ft 163 kts 251°
2026-05-07 23:45 -37.82744 144.92635 3229 ft 151 kts 255°
2026-05-07 23:46 -37.82895 144.91385 3125 ft 136 kts 253°
2026-05-07 23:46 -37.83028 144.90272 2918 ft 122 kts 252°
2026-05-07 23:46 -37.83156 144.89235 2604 ft 120 kts 252°
2026-05-07 23:46 -37.83288 144.88106 2508 ft 147 kts 258°
2026-05-07 23:47 -37.82908 144.86850 2501 ft 174 kts 302°
2026-05-07 23:47 -37.81730 144.86239 2516 ft 198 kts 349°
2026-05-07 23:47 -37.80355 144.86179 2515 ft 196 kts 348°
2026-05-07 23:47 -37.78995 144.85997 2397 ft 197 kts 345°
2026-05-07 23:48 -37.77642 144.85782 2139 ft 194 kts 345°
2026-05-07 23:48 -37.76327 144.85555 1877 ft 181 kts 344°
2026-05-07 23:48 -37.75173 144.85351 1630 ft 151 kts 342°
2026-05-07 23:48 -37.74195 144.85160 1452 ft 139 kts 342°
2026-05-07 23:49 -37.73240 144.84989 1257 ft 138 kts 345°
2026-05-07 23:49 -37.72304 144.84813 1081 ft 135 kts 343°
2026-05-07 23:49 -37.71385 144.84632 906 ft 133 kts 343°
2026-05-07 23:49 -37.70472 144.84455 733 ft 133 kts 341°
2026-05-07 23:50 -37.69572 144.84286 589 ft 130 kts 342°
2026-05-07 23:50 -37.68672 144.84118 414 ft 131 kts 342°
2026-05-07 23:50 -37.67822 144.83954 364 ft 108 kts 351°
2026-05-07 23:50 -37.67262 144.83850 382 ft 55 kts 353°
2026-05-07 23:51 -37.66984 144.83846 392 ft 26 kts 15°
2026-05-07 23:51 -37.66843 144.83905 396 ft 22 kts 23°
2026-05-07 23:51 -37.66748 144.83972 399 ft 14 kts 48°
2026-05-07 23:51 -37.66713 144.84097 398 ft 17 kts 81°
2026-05-07 23:52 -37.66694 144.84257 402 ft 20 kts 81°
2026-05-07 23:52 -37.66672 144.84440 403 ft 22 kts 82°
2026-05-07 23:52 -37.66649 144.84641 406 ft 24 kts 82°
2026-05-07 23:52 -37.66639 144.84765 408 ft 10 kts 109°
2026-05-07 23:53 -37.66693 144.84811 406 ft 7 kts 164°
2026-05-07 23:53 -37.66722 144.84860 405 ft 5 kts 90°
2026-05-07 23:53 -37.66720 144.84893 406 ft 1 kts 81°
2026-05-07 23:53 -37.66719 144.84904 406 ft 0 kts 82°
2026-05-07 23:54 -37.66719 144.84906 406 ft 0 kts 82°
2026-05-07 23:54 -37.66719 144.84903 406 ft 0 kts 82°
2026-05-08 00:19 -37.66719 144.84901 406 ft 2 kts 82°
2026-05-08 00:19 -37.66723 144.84870 405 ft 4 kts 78°
2026-05-08 00:20 -37.66731 144.84839 402 ft 4 kts 51°
2026-05-08 00:20 -37.66744 144.84829 402 ft 2 kts 339°
2026-05-08 00:20 -37.66726 144.84820 403 ft 4 kts 337°
2026-05-08 00:20 -37.66709 144.84814 406 ft 0 kts 348°
2026-05-08 00:22 -37.66691 144.84809 406 ft 5 kts 347°
2026-05-08 00:22 -37.66622 144.84794 408 ft 13 kts
2026-05-08 00:23 -37.66541 144.84797 411 ft 7 kts 348°
2026-05-08 00:23 -37.66480 144.84777 413 ft 11 kts 347°
2026-05-08 00:23 -37.66415 144.84777 415 ft 10 kts
2026-05-08 00:23 -37.66381 144.84781 413 ft 0 kts